This is the latest recevied weather packets stored in our database for station/object IU1INZ-13. If no packets are shown the sender has not sent any weather packets the latest 1 day(s).
| Time | Temp. | Humidity | Pressure | Rain* | Wind** | Luminosity | Snow |
|---|---|---|---|---|---|---|---|
| 1777977036 | 12.22° C | 86% | 1014.5 hPa | 0 mm | 0.45 m/s, 268° | - | - |
| 1777976139 | 11.67° C | 87% | 1014.5 hPa | 0 mm | 0.89 m/s, 217° | - | - |
| 1777975235 | 11.67° C | 89% | 1014.4 hPa | 0 mm | 0.45 m/s, 0° | - | - |
| 1777974334 | 11.67° C | 89% | 1014.4 hPa | 0 mm | 0.89 m/s, 272° | - | - |
| 1777973431 | 11.67° C | 89% | 1014.4 hPa | 0 mm | 0.45 m/s, 219° | - | - |
| 1777972534 | 11.11° C | 89% | 1014.5 hPa | 0 mm | 0.89 m/s, 252° | - | - |
| 1777971629 | 11.11° C | 89% | 1014.3 hPa | 0 mm | 0.45 m/s, 287° | - | - |
| 1777970742 | 11.11° C | 89% | 1014.3 hPa | 0 mm | 0.89 m/s, 233° | - | - |
| 1777969833 | 11.11° C | 89% | 1014.2 hPa | 0 mm | 0.89 m/s, 235° | - | - |
| 1777968934 | 11.67° C | 89% | 1014 hPa | 0 mm | 0.89 m/s, 243° | - | - |
| 1777968030 | 11.11° C | 89% | 1014 hPa | 0 mm | 0.89 m/s, 223° | - | - |
| 1777967134 | 11.11° C | 88% | 1013.9 hPa | 0.51 mm | 0.45 m/s, 162° | - | - |
| 1777966240 | 11.11° C | 88% | 1013.9 hPa | 0.51 mm | 0.45 m/s, 204° | - | - |
| 1777965334 | 11.11° C | 88% | 1013.8 hPa | 0.25 mm | 0 m/s | - | - |
| 1777964440 | 11.11° C | 87% | 1014 hPa | 0.25 mm | 0 m/s | - | - |
| 1777963534 | 11.11° C | 85% | 1013.8 hPa | 0 mm | 0 m/s | - | - |
| 1777962630 | 11.11° C | 86% | 1013.6 hPa | 0 mm | 0.45 m/s, 333° | - | - |
| 1777961739 | 11.11° C | 86% | 1013.7 hPa | 0.25 mm | 0.89 m/s, 319° | - | - |
| 1777960834 | 10.56° C | 87% | 1013.5 hPa | 1.02 mm | 2.24 m/s, 337° | - | - |
| 1777959937 | 10.56° C | 89% | 1013.6 hPa | 2.29 mm | 1.79 m/s, 316° | - | - |
| 1777959033 | 10.56° C | 90% | 1013.6 hPa | 3.3 mm | 1.34 m/s, 13° | - | - |
| 1777958133 | 10° C | 90% | 1013.7 hPa | 4.32 mm | 0 m/s | - | - |
* Rain latest hour (hover to see other rain measurements)
** Current wind speed in m/s (hover to see current wind gust speed)